Location: East Irvine
(33.6759°N, 117.7598°W)
Time: 01:11:45
(UTC+00:00)

Cosmos 1833 Rocket - Pass Details

Date: 15 November 2025
Orbit: 829 x 840 km, 71.0° (Epoch: 07 December)

Event Time Altitude Azimuth Distance (km) Brightness Sun altitude
Rises 02:03:03 0° 335° (NNW) 3,398 6.0 -15.7°
Reaches altitude 10° 02:05:31 10° 332° (NNW) 2,460 5.3 -16.2°
Maximum altitude 02:11:04 61° 253° (WSW) 946 3.2 -17.3°
Drops below altitude 10° 02:16:35 10° 174° (S) 2,442 5.1 -18.4°
Sets 02:19:02 0° 170° (S) 3,372 5.8 -18.9°
